Location: *
(38.4303°S, 157.0822°W)
Time: 17:39:18
(UTC+00:00)

Daily predictions for brighter satellites

Satellite Brightness Start Highest point End
(mag) Time Altitude Azimuth Time Altitude Azimuth Time Altitude Azimuth
USA 59 Rocket 2.7 14:00:54 47° S 14:00:54 47° S 14:08:28 10° SSE
Cosmos 2263 Rocket 4.1 14:28:22 22° NNE 14:28:22 22° NNE 14:30:14 10° NNE
SL-16 R/B 3.2 14:30:31 44° E 14:30:31 44° E 14:35:40 10° SE
USA 238 DEB 4.4 14:37:13 38° SSE 14:38:33 43° SE 14:44:24 10° ENE
USA 238 4.5 14:37:15 38° SSE 14:38:37 42° SE 14:44:27 10° ENE
Cosmos 2360 Rocket 3.8 14:49:35 10° NNE 14:54:34 33° ENE 14:59:35 10° SE
Cosmos 1844 Rocket 4.5 14:50:57 15° S 14:54:40 28° ESE 14:59:32 10° ENE
ISS -0.7 15:02:42 12° SE 15:02:42 12° SE 15:03:00 10° SE
USA 307 4.5 15:07:43 27° SE 15:07:43 27° SE 15:09:37 10° SE
Nadezhda 3 Rocket 4.1 15:11:16 55° SSW 15:11:16 55° SSW 15:16:21 10° S
Cosmos 2278 4.1 15:12:45 46° SSW 15:12:45 46° SSW 15:16:59 10° SSE
Cosmos 1461 4.1 15:11:41 37° SSE 15:12:20 40° SE 15:16:25 10° NE
NOSS 3-4 (A) 4.1 15:09:35 37° NW 15:13:27 73° SW 15:21:45 10° SSE
NOSS 3-4 (C) 4.1 15:09:30 36° NW 15:13:30 73° SW 15:21:48 10° SSE
Cosmos 2333 Rocket 3.1 15:16:30 10° N 15:22:03 50° ENE 15:27:39 10° SSE
Cosmos 1437 Rocket 4.2 15:24:16 28° N 15:24:16 28° N 15:26:10 10° N
PSLV R/B 4.1 15:18:34 10° NNE 15:22:44 57° ESE 15:25:07 25° S
NOSS 3-2 (C) 3.5 15:28:39 44° NW 15:28:39 44° NW 15:33:07 10° N
Cosmos 2322 Rocket 2.1 15:25:08 10° NNW 15:30:51 89° WSW 15:36:39 10° SSE
Cosmos 1455 Rocket 3.0 15:28:45 10° N 15:33:13 86° E 15:37:45 10° S
Cosmos 1892 Rocket 3.8 15:30:20 15° S 15:33:57 68° E 15:38:17 10° NNE
ARIANE 5 R/B 4.5 15:43:32 10° NNW 15:44:13 13° NW 15:44:13 13° NW
Helios 1B rocket 4.4 15:45:11 10° NE 15:48:31 27° ESE 15:51:54 10° SSE
USA 305 3.7 15:49:17 31° SSW 15:49:17 31° SSW 15:52:14 10° SSE
USA 59 Rocket 3.1 15:47:30 22° SW 15:50:37 25° SSW 15:58:47 10° SSE
DMSP B5D2-2 4.3 15:47:14 10° S 15:52:14 45° WSW 15:57:11 10° NW
Cosmos 2227 4.5 15:59:00 24° SW 16:01:58 44° WNW 16:07:16 10° N
Centaur D-1A AC-31 3.4 16:00:35 10° NNW 16:03:11 18° NNE 16:06:54 10° ENE
USA 276 4.1 16:03:52 17° S 16:03:52 17° S 16:05:29 10° SSE
Meteor 2-1 Rocket 4.4 15:57:53 10° N 16:03:47 81° E 16:09:37 10° S
Cosmos 1934 Rocket 4.3 16:04:02 10° SSW 16:09:43 42° W 16:15:21 10° NNW
OAO 2 Rocket 4.2 16:08:11 13° NW 16:12:20 44° NNE 16:17:01 10° E
Timation 2 Rocket 4.4 16:05:54 10° SSW 16:12:36 72° ESE 16:19:27 10° NNE
SMAP 3.0 16:08:59 10° N 16:13:38 66° WNW 16:18:21 10° SSW
SL-16 R/B 3.1 16:12:31 21° W 16:14:32 26° WSW 16:19:16 10° S
YAOGAN 11 4.2 16:11:04 10° SSE 16:15:42 88° ENE 16:20:15 10° NNW
Cosmos 1570 Rocket 4.1 16:12:40 10° NNW 16:17:57 59° WSW 16:23:16 10° S
USA 234 3.3 16:11:33 10° SE 16:18:04 62° SW 16:24:33 10° WNW
ATLAS 5 CENTAUR R/B 4.0 16:14:22 10° SSW 16:18:48 22° SE 16:22:35 10° E
Cosmos 2208 Rocket 3.9 16:13:47 10° NNW 16:18:57 77° WSW 16:24:13 10° SSE
Cosmos 2058 2.9 16:15:17 10° SSW 16:19:22 60° W 16:23:21 10° N
CZ-2D R/B 4.5 16:16:41 10° NW 16:19:11 20° W 16:19:11 20° W
Cosmos 2333 4.2 16:14:03 10° NNW 16:19:48 68° WSW 16:25:37 10° SSE
Cosmos 1626 Rocket 3.9 16:15:48 10° S 16:20:11 70° E 16:24:34 10° NNE
Cosmos 2228 3.1 16:23:26 10° N 16:27:47 86° E 16:32:10 10° S
USA 238 DEB 4.2 16:24:42 15° SW 16:29:13 33° WNW 16:34:34 10° N
USA 238 4.2 16:24:44 15° SW 16:29:18 33° WNW 16:34:40 10° N
Cosmos 2219 Rocket 2.2 16:24:46 10° NNW 16:30:27 76° WSW 16:36:12 10° SSE
Cosmos 1844 3.8 16:26:07 10° SSW 16:31:33 53° WNW 16:36:58 10° N
COSMOS 2428 3.7 16:27:41 10° N 16:33:13 52° ENE 16:38:48 10° SSE
ISS -1.8 16:35:32 13° SW 16:36:44 15° SSW 16:38:49 10° SSE
Cosmos 2360 Rocket 2.8 16:33:24 10° WNW 16:38:28 33° WSW 16:43:35 10° S
Cosmos 1844 Rocket 3.2 16:33:20 10° SW 16:38:38 40° WNW 16:43:52 10° N
USA 307 4.2 16:37:57 14° WSW 16:39:54 20° SSW 16:42:51 10° SSE
Cosmos 1544 Rocket 3.8 16:36:04 10° NNW 16:40:21 46° W 16:44:42 10° S
Lacrosse 5 rocket 4.2 16:38:29 10° NNE 16:40:47 16° ENE 16:43:06 10° E
Cosmos 1867 3.9 16:37:50 10° SW 16:42:58 45° WNW 16:48:04 10° N
SKYMED 2 3.5 16:41:02 10° S 16:45:27 77° WSW 16:49:49 10° NNW
Meteor 2-13 Rocket 4.5 16:41:34 10° NNW 16:47:38 68° W 16:53:50 10° S
Cosmos 2298 Rocket 4.2 16:42:56 10° SSW 16:48:19 78° ESE 16:53:37 10° NNE
Meteor 1-31 Rocket 2.9 16:44:48 10° N 16:48:23 47° W 16:52:03 10° SSW
Cosmos 1461 4.5 16:47:17 11° WSW 16:50:16 19° WNW 16:53:21 10° NNW
Cosmos 1869 4.0 16:49:28 10° NW 16:52:44 28° WSW 16:56:01 10° SSW
Iridium 4 Rocket 3.6 16:49:19 10° NNW 16:53:33 42° W 16:58:13 10° SSW
Meteor 1-27 4.4 16:48:08 10° N 16:53:58 86° E 16:59:49 10° S
Cosmos 1459 Rocket 4.1 16:48:46 10° S 16:55:00 83° E 17:01:04 10° N
Cosmos 158 Rocket 4.4 16:51:39 10° NW 16:56:27 39° WSW 17:01:12 10° S
Cosmos 773 Rocket 4.0 16:51:20 10° NNW 16:56:31 75° WSW 17:01:50 10° SSE
CZ-2C R/B 3.5 16:53:49 10° NNW 16:56:59 29° W 17:00:15 10° SW
Cosmos 1500 3.8 16:59:01 10° S 17:02:28 54° E 17:05:53 10° NNE
SL-08 R/B 4.0 16:58:46 10° SSE 17:03:22 59° E 17:07:56 10° N
Lacrosse 5 4.1 17:00:34 10° SSW 17:03:23 15° SSE 17:06:11 10° SE
Cosmos 2333 Rocket 3.3 17:02:00 10° WNW 17:06:36 24° SW 17:11:14 10° S
